• In Hungary
  • List of Countries
  • For 7 days
  • Water Temperature
  • Satellite Maps
  • Weather Map
  • News
  • Weather Widgets
  • user-avatar
    Login

    Hourly Weather Horobiivka

    Today, 17 October, Tuesday

    Time Temperature Precipitation Wind Pressure Humidity
    00:00 +11°C° 0 mm 3 mps 751 mmHg 87%
    01:00 +11°C° 0 mm 3 mps 751 mmHg 90%
    02:00 +11°C° 0 mm 3 mps 751 mmHg 93%
    03:00 +11°C° 0 mm 3 mps 751 mmHg 94%
    04:00 +11°C° 0 mm 3 mps 751 mmHg 94%
    05:00 +11°C° 0 mm 3 mps 751 mmHg 95%
    06:00 +12°C° 0 mm 4 mps 751 mmHg 93%
    07:00 +12°C° 0 mm 4 mps 751 mmHg 91%
    08:00 +13°C° 0 mm 4 mps 751 mmHg 88%
    09:00 +14°C° 0 mm 4 mps 751 mmHg 84%
    10:00 +15°C° 0 mm 4 mps 751 mmHg 79%
    11:00 +17°C° 0 mm 4 mps 752 mmHg 75%
    12:00 +17°C° 0 mm 4 mps 752 mmHg 74%
    13:00 +17°C° 0 mm 4 mps 752 mmHg 73%
    14:00 +18°C° 0 mm 4 mps 752 mmHg 72%
    15:00 +17°C° 0 mm 3 mps 752 mmHg 74%
    16:00 +16°C° 0 mm 3 mps 752 mmHg 77%
    17:00 +16°C° 0 mm 3 mps 752 mmHg 80%
    18:00 +14°C° 0 mm 3 mps 752 mmHg 83%
    19:00 +14°C° 0 mm 2 mps 753 mmHg 87%
    20:00 +13°C° 0 mm 2 mps 753 mmHg 91%
    21:00 +12°C° 0 mm 1 mps 753 mmHg 92%
    22:00 +12°C° 0 mm 1 mps 753 mmHg 92%
    23:00 +12°C° 0 mm 1 mps 753 mmHg 92%

    Tomorrow, 18 October, Wednesday

    Time Temperature Precipitation Wind Pressure Humidity
    00:00 +12°C° 0 mm 1 mps 753 mmHg 92%
    01:00 +12°C° 0 mm 1 mps 753 mmHg 93%
    02:00 +10°C° 0 mm 2 mps 753 mmHg 93%
    03:00 +10°C° 0 mm 2 mps 752 mmHg 94%
    04:00 +10°C° 0 mm 2 mps 752 mmHg 94%
    05:00 +10°C° 0 mm 3 mps 752 mmHg 95%
    06:00 +11°C° 0 mm 3 mps 752 mmHg 93%
    07:00 +12°C° 0 mm 3 mps 752 mmHg 91%
    08:00 +13°C° 0 mm 4 mps 751 mmHg 88%
    09:00 +14°C° 0 mm 4 mps 751 mmHg 81%
    10:00 +17°C° 0 mm 4 mps 751 mmHg 73%
    11:00 +19°C° 0 mm 4 mps 751 mmHg 66%
    12:00 +20°C° 0 mm 4 mps 751 mmHg 61%
    13:00 +21°C° 0 mm 4 mps 750 mmHg 57%
    14:00 +22°C° 0 mm 4 mps 750 mmHg 53%
    15:00 +21°C° 0 mm 4 mps 750 mmHg 58%
    16:00 +19°C° 0 mm 3 mps 749 mmHg 62%
    17:00 +18°C° 0 mm 3 mps 749 mmHg 67%
    18:00 +17°C° 0 mm 3 mps 749 mmHg 69%
    19:00 +17°C° 0 mm 3 mps 749 mmHg 71%
    20:00 +16°C° 0 mm 3 mps 749 mmHg 73%
    21:00 +16°C° 0 mm 3 mps 748 mmHg 74%
    22:00 +14°C° 0 mm 3 mps 748 mmHg 75%
    23:00 +14°C° 0 mm 3 mps 748 mmHg 76%

    Day after tomorrow, 19 October, Thursday

    Time Temperature Precipitation Wind Pressure Humidity
    00:00 +13°C° 0 mm 3 mps 748 mmHg 78%
    01:00 +13°C° 0 mm 3 mps 748 mmHg 79%
    02:00 +12°C° 0 mm 3 mps 748 mmHg 81%
    03:00 +12°C° 0 mm 3 mps 748 mmHg 81%
    04:00 +12°C° 0 mm 3 mps 747 mmHg 82%
    05:00 +12°C° 0 mm 2 mps 747 mmHg 82%
    06:00 +13°C° 0 mm 2 mps 747 mmHg 80%
    07:00 +14°C° 0 mm 2 mps 748 mmHg 77%
    08:00 +14°C° 0 mm 2 mps 748 mmHg 75%
    09:00 +16°C° 0 mm 2 mps 748 mmHg 68%
    10:00 +18°C° 0 mm 2 mps 748 mmHg 61%
    11:00 +19°C° 0 mm 2 mps 748 mmHg 55%
    12:00 +20°C° 0 mm 2 mps 748 mmHg 52%
    13:00 +22°C° 0 mm 1 mps 747 mmHg 50%
    14:00 +23°C° 0 mm 1 mps 747 mmHg 47%
    15:00 +21°C° 0 mm 1 mps 747 mmHg 52%
    16:00 +20°C° 0 mm 1 mps 747 mmHg 56%
    17:00 +19°C° 0 mm 1 mps 747 mmHg 60%
    18:00 +18°C° 0 mm 1 mps 747 mmHg 63%
    19:00 +18°C° 0 mm 1 mps 747 mmHg 66%
    20:00 +16°C° 0 mm 1 mps 747 mmHg 69%
    21:00 +15°C° 0 mm 1 mps 747 mmHg 72%
    22:00 +15°C° 0 mm 1 mps 747 mmHg 75%
    23:00 +14°C° 0 mm 1 mps 747 mmHg 77%

    20 October, Friday

    Time Temperature Precipitation Wind Pressure Humidity
    00:00 +14°C° 0 mm 2 mps 747 mmHg 80%
    01:00 +13°C° 0 mm 2 mps 747 mmHg 83%
    02:00 +13°C° 0 mm 2 mps 747 mmHg 86%
    03:00 +12°C° 0 mm 2 mps 747 mmHg 88%
    04:00 +12°C° 0 mm 2 mps 748 mmHg 90%
    05:00 +12°C° 0 mm 2 mps 748 mmHg 91%
    06:00 +11°C° 0 mm 3 mps 748 mmHg 89%
    07:00 +11°C° 0 mm 3 mps 748 mmHg 87%
    08:00 +11°C° 0 mm 4 mps 749 mmHg 85%
    09:00 +13°C° 0 mm 4 mps 749 mmHg 80%
    10:00 +14°C° 0 mm 4 mps 749 mmHg 74%
    11:00 +15°C° 0 mm 4 mps 749 mmHg 68%
    12:00 +15°C° 0 mm 4 mps 750 mmHg 65%
    13:00 +17°C° 0 mm 4 mps 750 mmHg 62%
    14:00 +17°C° 0 mm 4 mps 750 mmHg 59%
    15:00 +15°C° 0 mm 4 mps 750 mmHg 60%
    16:00 +14°C° 0 mm 4 mps 750 mmHg 61%
    17:00 +12°C° 0 mm 3 mps 750 mmHg 62%
    18:00 +11°C° 0 mm 3 mps 751 mmHg 61%
    19:00 +11°C° 0 mm 3 mps 751 mmHg 59%
    20:00 +10°C° 0 mm 4 mps 751 mmHg 57%
    21:00 +9°C° 0 mm 3 mps 752 mmHg 59%
    22:00 +8°C° 0 mm 3 mps 752 mmHg 60%
    23:00 +8°C° 0 mm 3 mps 752 mmHg 62%

    21 October, Saturday

    Time Temperature Precipitation Wind Pressure Humidity
    00:00 +7°C° 0 mm 3 mps 752 mmHg 64%
    01:00 +7°C° 0 mm 3 mps 752 mmHg 67%
    02:00 +5°C° 0 mm 3 mps 752 mmHg 69%
    03:00 +5°C° 0 mm 3 mps 752 mmHg 71%
    04:00 +4°C° 0 mm 3 mps 752 mmHg 73%
    05:00 +4°C° 0 mm 3 mps 752 mmHg 75%
    06:00 +4°C° 0 mm 3 mps 753 mmHg 73%
    07:00 +5°C° 0 mm 3 mps 753 mmHg 72%
    08:00 +5°C° 0 mm 3 mps 753 mmHg 70%
    09:00 +8°C° 0 mm 3 mps 753 mmHg 64%
    10:00 +9°C° 0 mm 3 mps 753 mmHg 57%
    11:00 +10°C° 0 mm 3 mps 753 mmHg 50%
    12:00 +11°C° 0 mm 3 mps 753 mmHg 48%
    13:00 +11°C° 0 mm 3 mps 753 mmHg 46%
    14:00 +12°C° 0 mm 3 mps 753 mmHg 44%
    15:00 +11°C° 0 mm 3 mps 753 mmHg 48%
    16:00 +9°C° 0 mm 2 mps 753 mmHg 52%
    17:00 +8°C° 0 mm 2 mps 753 mmHg 57%
    18:00 +8°C° 0 mm 2 mps 753 mmHg 60%
    19:00 +7°C° 0 mm 2 mps 753 mmHg 63%
    20:00 +7°C° 0 mm 2 mps 754 mmHg 66%
    21:00 +6°C° 0 mm 2 mps 754 mmHg 68%
    22:00 +6°C° 0 mm 2 mps 754 mmHg 71%
    23:00 +5°C° 0 mm 2 mps 754 mmHg 73%

    22 October, Sunday

    Time Temperature Precipitation Wind Pressure Humidity
    00:00 +5°C° 0 mm 2 mps 754 mmHg 75%
    01:00 +5°C° 0 mm 2 mps 754 mmHg 76%
    02:00 +4°C° 0 mm 2 mps 754 mmHg 78%
    03:00 +4°C° 0 mm 2 mps 754 mmHg 78%
    04:00 +3°C° 0 mm 2 mps 755 mmHg 79%
    05:00 +3°C° 0 mm 2 mps 755 mmHg 80%
    06:00 +4°C° 0 mm 2 mps 755 mmHg 76%
    07:00 +4°C° 0 mm 2 mps 755 mmHg 73%
    08:00 +5°C° 0 mm 2 mps 755 mmHg 70%
    09:00 +6°C° 0 mm 2 mps 755 mmHg 63%
    10:00 +8°C° 0 mm 2 mps 755 mmHg 56%
    11:00 +9°C° 0 mm 2 mps 755 mmHg 49%
    12:00 +9°C° 0 mm 2 mps 755 mmHg 46%
    13:00 +10°C° 0 mm 2 mps 754 mmHg 43%
    14:00 +10°C° 0 mm 2 mps 754 mmHg 40%
    15:00 +9°C° 0 mm 2 mps 754 mmHg 43%
    16:00 +8°C° 0 mm 2 mps 754 mmHg 47%
    17:00 +7°C° 0 mm 2 mps 753 mmHg 50%
    18:00 +6°C° 0 mm 2 mps 754 mmHg 52%
    19:00 +6°C° 0 mm 2 mps 754 mmHg 54%
    20:00 +4°C° 0 mm 3 mps 754 mmHg 56%
    21:00 +4°C° 0 mm 3 mps 754 mmHg 57%
    22:00 +4°C° 0 mm 3 mps 754 mmHg 58%
    23:00 +3°C° 0 mm 3 mps 754 mmHg 58%
    Show more